Regional Weather Roundup
Issued by NWS Albany, NY

Home | Current Version | Previous Version | Text Only | Print | Product List | Glossary On
Versions: 1 2 3 4 5 6 7 8 9 10 11 12 13 14 15 16 17 18 19 20 21 22 23 24 25 26 27 28 29 30 31 32 33 34 35 36 37 38 39 40 41 42 43 44 45 46 47 48 49 50
000
ASUS41 KALY 170210
RWRALY

NEW YORK STATE HOURLY WEATHER ROUNDUP
NATIONAL WEATHER SERVICE ALBANY NY
900 PM EST TUE JAN 16 2018

NOTE: "FAIR" INDICATES FEW OR NO CLOUDS BELOW 12,000 FEET WITH NO
SIGNIFICANT WEATHER AND/OR NO OBSTRUCTIONS TO VISIBILITY.

NYZ032-033-038>043-046>054-057>066-NYZ062>081-082-084-170300-
EAST


CITY           SKY/WX    TMP DP  RH WIND       PRES   REMARKS
ALBANY         LGT SNOW  29  25  85 CALM      30.40S VSB 1
GLENS FALLS    LGT SNOW  23  22  96 CALM      30.40F FOG
POUGHKEEPSIE   LGT SNOW  28  26  92 CALM      30.39F FOG
NEWBURGH       CLOUDY    28  28 100 CALM      30.38F FOG
MONTGOMERY     LGT SNOW  28  26  92 N3        30.36F FOG
WHITE PLAINS   CLOUDY    32  25  75 E5        30.37F WCI  27
ISLIP          CLOUDY    37  32  82 E6        30.39F WCI  32
NEW YORK CITY  CLOUDY    33  29  85 NE9       30.39F WCI  25
CENTRAL PARK   MOCLDY    34  29  82 NE5       30.40F WCI  30
$$

NYZ005>009-017-018-044>046-055-056-170300-
CENTRAL


CITY           SKY/WX    TMP DP  RH WIND       PRES   REMARKS
FULTON         CLOUDY    25  22  88 E3        30.37F FOG
SYRACUSE       LGT SNOW  24  24 100 CALM      30.38F FOG
ROME           LGT SNOW  23  21  92 SE3       30.40S FOG
ELMIRA         LGT SNOW  27  26  96 N3        30.33S FOG
BINGHAMTON     LGT SNOW  24  23  96 CALM      30.29S VSB 1
MONTICELLO     LGT SNOW  26  25  96 CALM      30.32F FOG
$$

NYZ026>034-041>043-087-170300-
NORTH


CITY           SKY/WX    TMP DP  RH WIND       PRES   REMARKS
WATERTOWN      FAIR       6   5  95 E3        30.39S FOG
FORT DRUM      NOT AVBL
OGDENSBURG     FAIR       9   7  91 NW3       30.41R
MASSENA        CLOUDY    12  10  92 CALM      30.41F
SARANAC LAKE   LGT SNOW  19  18  95 CALM      30.28S FOG
PLATTSBURGH    LGT SNOW  16  12  84 CALM      30.40F FOG
$$

NYZ001>004-010>016-019>021-085-170300-
WEST


CITY           SKY/WX    TMP DP  RH WIND       PRES   REMARKS
NIAGARA FALLS  CLOUDY    18  10  71 SW17      30.39R WCI   3
BUFFALO        LGT SNOW  17  13  84 W14       30.39S FOG     WCI   3
DUNKIRK        LGT SNOW  14  10  84 SW10      30.42S FOG     WCI   1
JAMESTOWN      FLURRIES  10   6  84 W7        30.33S WCI  -1
WELLSVILLE     LGT SNOW  25  22  88 W6        30.25S FOG     WCI  18
ROCHESTER      FLURRIES  26  20  77 SW3       30.37R
PENN YAN       LGT SNOW  25  22  88 NE3       30.33F FOG
$$

             KEY
       WCI = WIND CHILL INDEX
       VSB = VISIBILITY
       HX  = HEAT INDEX
$$



USA.gov is the U.S. government's official web portal to all federal, state and local government web resources and services.